This is the latest recevied weather packets stored in our database for station/object EA1IDU-11. If no packets are shown the sender has not sent any weather packets the latest 10 day(s).
| Time | Temp. | Humidity | Pressure | Rain* | Wind** | Luminosity | Snow |
|---|---|---|---|---|---|---|---|
| 1777600644 | 14.44° C | 59% | 1027.1 hPa | - | - | - | - |
| 1777599744 | 14.44° C | 59% | 1027 hPa | - | - | - | - |
| 1777598844 | 14.44° C | 59% | 1027.1 hPa | - | - | - | - |
| 1777597943 | 14.44° C | 59% | 1027.2 hPa | - | - | - | - |
| 1777597043 | 14.44° C | 59% | 1027.4 hPa | - | - | - | - |
| 1777596143 | 14.44° C | 59% | 1027.5 hPa | - | - | - | - |
| 1777595243 | 13.89° C | 58% | 1027.5 hPa | - | - | - | - |
| 1777594343 | 13.89° C | 58% | 1027.4 hPa | - | - | - | - |
| 1777593443 | 13.89° C | 57% | 1027.4 hPa | - | - | - | - |
| 1777592543 | 14.44° C | 56% | 1027.3 hPa | - | - | - | - |
| 1777591642 | 14.44° C | 56% | 1027.4 hPa | - | - | - | - |
| 1777590742 | 15° C | 56% | 1027.5 hPa | - | - | - | - |
| 1777589842 | 15° C | 55% | 1027.3 hPa | - | - | - | - |
| 1777588942 | 15° C | 55% | 1027.3 hPa | - | - | - | - |
| 1777588042 | 15.56° C | 54% | 1027.3 hPa | - | - | - | - |
| 1777587142 | 15.56° C | 54% | 1027.2 hPa | - | - | - | - |
| 1777586242 | 15.56° C | 53% | 1027.4 hPa | - | - | - | - |
| 1777585341 | 15° C | 51% | 1027.4 hPa | - | - | - | - |
| 1777584441 | 15° C | 49% | 1027.4 hPa | - | - | - | - |
| 1777583541 | 15° C | 48% | 1027.2 hPa | - | - | - | - |
| 1777582641 | 15° C | 47% | 1027.2 hPa | - | - | - | - |
| 1777581741 | 15.56° C | 47% | 1027 hPa | - | - | - | - |
| 1777580841 | 15.56° C | 47% | 1026.9 hPa | - | - | - | - |
| 1777579941 | 16.11° C | 46% | 1026.9 hPa | - | - | - | - |
| 1777579041 | 16.67° C | 46% | 1026.7 hPa | - | - | - | - |
* Rain since midnight (hover to see other rain measurements)
** Current wind speed in m/s (hover to see current wind gust speed)